FW0710 Weather Reports


time (UTC)temp
F
wind
direction
speed
knots
gust
knots
rain 1hr
in
rain 24hr
in
rain mn
in
humidity
%
barometer
mb
20260509022043 48 0 0.0 0.0 0.00 0.00 0.00 56 1002.3
20260509021548 49 0 0.0 0.0 0.00 0.00 0.00 53 1002.5
20260509021042 50 0 0.0 0.0 0.00 0.00 0.00 54 1002.4
20260509020542 51 0 0.0 0.0 0.00 0.00 0.00 51 1002.2
20260509020055 53 0 0.0 0.0 0.00 0.00 0.00 51 1002.3
20260509015542 53 0 0.0 0.0 0.00 0.00 0.00 45 1002.3
20260509015042 53 0 0.0 0.0 0.00 0.00 0.00 45 1002.5
20260509014551 54 0 0.0 0.0 0.00 0.00 0.00 44 1002.6
20260509014041 55 0 0.0 0.0 0.00 0.00 0.00 46 1002.6
20260509013542 56 0 0.0 0.0 0.00 0.00 0.00 44 1002.5
20260509013050 56 0 0.0 0.0 0.00 0.00 0.00 42 1002.5
20260509012542 56 0 0.0 0.0 0.00 0.00 0.00 42 1002.5
20260509012043 56 0 0.0 0.0 0.00 0.00 0.00 41 1002.7
20260509011545 57 0 0.0 0.0 0.00 0.00 0.00 41 1002.7
20260509011042 57 0 0.0 0.0 0.00 0.00 0.00 42 1002.7
20260509010543 57 0 0.0 0.0 0.00 0.00 0.00 42 1002.8
20260509010049 57 0 0.0 0.0 0.00 0.00 0.00 42 1002.8
20260509005543 57 0 0.0 0.0 0.00 0.00 0.00 42 1003.0
20260509005040 57 0 0.0 0.9 0.00 0.00 0.00 41 1003.0
20260509004606 57 0 0.0 4.3 0.00 0.00 0.00 41 1003.1
20260509004040 58 0 0.0 5.2 0.00 0.00 0.00 40 1003.0
20260509003544 58 0 0.0 5.2 0.00 0.00 0.00 39 1003.2
20260509003051 59 0 0.0 7.8 0.00 0.00 0.00 39 1003.2
20260509002542 59 0 0.9 7.8 0.00 0.00 0.00 38 1003.2
20260509002044 60 323 1.7 7.8 0.00 0.00 0.00 37 1003.3
20260509001549 60 293 0.0 6.1 0.00 0.00 0.00 37 1003.2
20260509001039 60 0 0.0 13.0 0.00 0.00 0.00 37 1003.3
20260509000541 60 0 1.7 13.0 0.00 0.00 0.00 37 1003.4
20260509000049 60 309 0.9 10.4 0.00 0.00 0.00 37 1003.4
20260508235542 61 257 1.7 10.4 0.00 0.00 0.00 36 1003.5
20260508235043 61 320 2.6 8.7 0.00 0.00 0.00 35 1003.6
20260508234554 61 0 1.7 8.7 0.00 0.00 0.00 37 1003.6
20260508234042 61 261 0.9 8.7 0.00 0.00 0.00 35 1003.6
20260508233542 61 0 0.9 11.3 0.00 0.00 0.00 34 1003.5
20260508233051 60 290 3.5 19.1 0.00 0.00 0.00 35 1003.6
20260508232542 60 310 3.5 19.1 0.00 0.00 0.00 35 1003.8
20260508232042 61 315 2.6 10.4 0.00 0.00 0.00 34 1003.9
20260508231552 60 321 3.5 12.2 0.00 0.00 0.00 33 1003.8
20260508231042 61 308 1.7 12.2 0.00 0.00 0.00 33 1003.8
20260508230542 61 329 2.6 10.4 0.00 0.00 0.00 33 1003.9
20260508230051 61 329 3.5 11.3 0.00 0.00 0.00 31 1003.9
20260508225543 61 311 2.6 11.3 0.00 0.00 0.00 32 1003.9
20260508225042 61 310 4.3 11.3 0.00 0.00 0.00 32 1004.0
20260508224550 61 333 3.5 10.4 0.00 0.00 0.00 33 1004.0
20260508224039 61 352 2.6 9.6 0.00 0.00 0.00 33 1004.0
20260508223540 61 322 3.5 12.2 0.00 0.00 0.00 33 1004.0
20260508223051 61 284 3.5 15.6 0.00 0.00 0.00 31 1004.0
20260508222540 61 296 4.3 15.6 0.00 0.00 0.00 32 1004.0
20260508222040 61 325 3.5 10.4 0.00 0.00 0.00 30 1004.0
20260508221557 61 291 3.5 16.5 0.00 0.00 0.00 30 1003.9
20260508221040 61 294 3.5 16.5 0.00 0.00 0.00 32 1004.0
20260508220545 61 321 3.5 16.5 0.00 0.00 0.00 31 1004.0
20260508220051 62 341 3.5 12.2 0.00 0.00 0.00 30 1003.9
20260508215542 62 5 2.6 10.4 0.00 0.00 0.00 33 1003.8
20260508215042 62 301 2.6 7.8 0.00 0.00 0.00 31 1003.8
20260508214546 62 307 1.7 17.4 0.00 0.00 0.00 33 1003.9
20260508214042 62 257 3.5 17.4 0.00 0.00 0.00 33 1003.7
20260508213541 62 302 2.6 12.2 0.00 0.00 0.00 31 1003.7
20260508213050 62 300 2.6 12.2 0.00 0.00 0.00 32 1003.6
20260508212543 63 340 3.5 17.4 0.00 0.00 0.00 33 1003.5
20260508212043 62 292 3.5 17.4 0.00 0.00 0.00 36 1003.4
20260508211549 63 319 2.6 11.3 0.00 0.00 0.00 36 1003.5
20260508211040 64 316 2.6 9.6 0.00 0.00 0.00 36 1003.3
20260508210540 64 316 2.6 13.0 0.00 0.00 0.00 35 1003.1
20260508210049 64 254 3.5 13.9 0.00 0.00 0.00 36 1003.1
20260508205539 64 319 4.3 13.9 0.00 0.00 0.00 35 1003.0
20260508205042 64 311 1.7 8.7 0.00 0.00 0.00 37 1003.0
20260508204551 64 265 1.7 8.7 0.00 0.00 0.00 35 1002.9
20260508204041 65 290 2.6 8.7 0.00 0.00 0.00 35 1002.9
20260508203542 65 255 3.5 8.7 0.00 0.00 0.00 35 1002.9
20260508203100 65 274 2.6 8.7 0.00 0.00 0.00 37 1002.8
20260508202542 66 257 2.6 9.6 0.00 0.00 0.00 36 1002.9
20260508202043 66 304 1.7 10.4 0.00 0.00 0.00 36 1002.9
20260508201559 66 280 2.6 20.0 0.00 0.00 0.00 36 1003.0
20260508201040 65 286 4.3 20.0 0.00 0.00 0.00 36 1002.8
20260508200539 65 282 2.6 12.2 0.00 0.00 0.00 34 1002.8
20260508200050 65 298 1.7 7.8 0.00 0.00 0.00 31 1002.9
20260508195541 65 257 1.7 9.6 0.00 0.00 0.00 31 1002.8
20260508195045 64 323 1.7 9.6 0.00 0.00 0.00 32 1002.8
20260508194550 64 0 1.7 11.3 0.00 0.00 0.00 31 1002.9
20260508194039 64 0 0.0 11.3 0.00 0.00 0.00 30 1002.9
20260508193539 64 261 2.6 8.7 0.00 0.00 0.00 30 1003.0
20260508193048 64 256 1.7 7.8 0.00 0.00 0.00 30 1003.0
20260508192541 65 250 2.6 7.0 0.00 0.00 0.00 30 1003.0
20260508192042 64 296 1.7 8.7 0.00 0.00 0.00 31 1003.1
20260508191550 63 0 1.7 8.7 0.00 0.00 0.00 29 1003.3
20260508191041 63 305 1.7 8.7 0.00 0.00 0.00 30 1003.2
20260508190542 63 248 2.6 8.7 0.00 0.00 0.00 29 1003.3
20260508190054 64 246 2.6 8.7 0.00 0.00 0.00 30 1003.3
20260508185548 64 288 1.7 7.8 0.00 0.00 0.00 30 1003.5
20260508185040 64 266 1.7 7.8 0.00 0.00 0.00 30 1003.6
20260508184556 64 248 1.7 7.0 0.00 0.00 0.00 30 1003.7
20260508184045 64 0 1.7 7.0 0.00 0.00 0.00 29 1003.7
20260508183539 64 0 0.0 6.1 0.00 0.00 0.00 32 1003.7
20260508183056 64 259 0.9 6.1 0.00 0.00 0.00 31 1003.8
20260508182542 63 0 1.7 7.8 0.00 0.00 0.00 30 1003.8
20260508182041 63 254 0.9 7.8 0.00 0.00 0.00 29 1003.9
20260508181602 63 248 1.7 6.1 0.00 0.00 0.00 29 1004.0
20260508181039 63 250 0.9 6.1 0.00 0.00 0.00 33 1004.0
20260508180540 63 263 0.9 6.1 0.00 0.00 0.00 33 1004.0
20260508180056 63 0 0.9 7.0 0.00 0.00 0.00 32 1004.2
20260508175539 62 0 0.0 7.0 0.00 0.00 0.00 31 1004.1
20260508175042 62 284 2.6 7.0 0.00 0.00 0.00 29 1004.3
20260508174605 62 0 0.0 7.0 0.00 0.00 0.00 32 1004.2
20260508174045 62 0 0.0 6.1 0.00 0.00 0.00 30 1004.4
20260508173539 62 0 0.0 7.0 0.00 0.00 0.00 32 1004.4
20260508173054 62 0 1.7 7.0 0.00 0.00 0.00 31 1004.6
20260508172542 61 284 0.0 6.1 0.00 0.00 0.00 34 1004.7
20260508172040 61 279 0.9 6.1 0.00 0.00 0.00 31 1004.7
20260508171543 61 0 0.9 6.1 0.00 0.00 0.00 32 1004.8
20260508171041 61 0 0.0 5.2 0.00 0.00 0.00 33 1004.7
20260508170542 60 0 0.0 3.5 0.00 0.00 0.00 34 1004.8
20260508170050 60 0 0.0 4.3 0.00 0.00 0.00 36 1004.8
20260508165539 61 246 0.0 5.2 0.00 0.00 0.00 33 1004.9
20260508165042 61 0 0.0 5.2 0.00 0.00 0.00 33 1005.0
20260508164553 61 0 0.0 5.2 0.00 0.00 0.00 33 1005.2
20260508164043 61 248 0.0 5.2 0.00 0.00 0.00 34 1005.2
20260508163542 61 0 0.0 4.3 0.00 0.00 0.00 35 1005.3
20260508163052 61 0 0.0 5.2 0.00 0.00 0.00 33 1005.3
20260508162539 60 0 0.0 5.2 0.00 0.00 0.00 35 1005.4
20260508162040 60 0 0.0 0.9 0.00 0.00 0.00 33 1005.4
20260508161549 60 0 0.0 0.9 0.00 0.00 0.00 35 1005.3
20260508161038 60 0 0.0 1.7 0.00 0.00 0.00 35 1005.4
20260508160542 59 185 0.0 1.7 0.00 0.00 0.00 37 1005.5
20260508160051 59 0 0.0 1.7 0.00 0.00 0.00 37 1005.6
20260508155545 58 0 0.0 0.0 0.00 0.00 0.00 38 1005.6
20260508155044 57 0 0.0 0.0 0.00 0.00 0.00 38 1005.6
20260508154551 57 0 0.0 0.0 0.00 0.00 0.00 38 1005.6
20260508154044 57 0 0.0 0.0 0.00 0.00 0.00 43 1005.7
20260508153544 57 0 0.0 0.0 0.00 0.00 0.00 38 1005.8
20260508153054 58 0 0.0 1.7 0.00 0.00 0.00 38 1005.7
20260508152544 58 0 0.0 1.7 0.00 0.00 0.00 36 1005.7
20260508152043 59 0 0.0 2.6 0.00 0.00 0.00 37 1005.9
20260508151554 58 0 0.0 2.6 0.00 0.00 0.00 39 1005.8
20260508151044 58 125 0.0 0.9 0.00 0.00 0.00 39 1005.8
20260508150545 57 0 0.0 0.9 0.00 0.00 0.00 40 1006.0
20260508150048 56 0 0.0 0.9 0.00 0.00 0.00 43 1005.8
20260508145544 55 0 0.0 0.0 0.00 0.00 0.00 46 1005.9
20260508145042 54 0 0.0 0.0 0.00 0.00 0.00 52 1005.9
20260508144552 53 0 0.0 0.0 0.00 0.00 0.00 48 1006.2
20260508144043 53 0 0.0 0.0 0.00 0.00 0.00 51 1006.5
20260508143539 52 0 0.0 0.0 0.00 0.00 0.00 52 1006.5
20260508143048 52 0 0.0 0.0 0.00 0.00 0.00 54 1006.6
20260508142544 52 0 0.0 0.0 0.00 0.00 0.00 54 1006.5
20260508142044 51 0 0.0 0.0 0.00 0.00 0.00 55 1006.4
20260508141612 51 0 0.0 0.0 0.00 0.00 0.00 54 1006.6
20260508141044 50 0 0.0 0.0 0.00 0.00 0.00 55 1006.6
20260508140543 50 0 0.0 0.0 0.00 0.00 0.00 55 1006.6
20260508140055 49 0 0.0 0.0 0.00 0.00 0.00 56 1006.7
20260508135544 48 0 0.0 0.0 0.00 0.00 0.00 58 1006.7
20260508135044 48 0 0.0 0.0 0.00 0.00 0.00 60 1006.8
20260508134602 47 0 0.0 0.0 0.00 0.00 0.00 60 1006.9
20260508134043 47 0 0.0 0.0 0.00 0.00 0.00 60 1007.1
20260508133543 46 0 0.0 0.0 0.00 0.00 0.00 60 1007.1
20260508133050 46 0 0.0 0.0 0.00 0.00 0.00 62 1007.3
20260508132542 45 0 0.0 0.0 0.00 0.00 0.00 63 1007.3
20260508132040 44 0 0.0 0.0 0.00 0.00 0.00 63 1007.3
20260508131551 43 0 0.0 0.0 0.00 0.00 0.00 69 1007.2
20260508131044 42 0 0.0 0.0 0.00 0.00 0.00 68 1007.1
20260508130543 41 0 0.0 0.0 0.00 0.00 0.00 74 1007.0
20260508130053 39 0 0.0 0.0 0.00 0.00 0.00 76 1007.2
20260508125543 38 0 0.0 0.0 0.00 0.00 0.00 78 1007.3
20260508125044 36 0 0.0 0.0 0.00 0.00 0.00 83 1007.3
20260508124556 34 0 0.0 0.0 0.00 0.00 0.00 86 1007.3
20260508124044 33 0 0.0 0.0 0.00 0.00 0.00 91 1007.3
20260508123544 32 0 0.0 0.0 0.00 0.00 0.00 91 1007.3
20260508123050 31 0 0.0 0.0 0.00 0.00 0.00 90 1007.3
20260508122540 30 0 0.0 0.0 0.00 0.00 0.00 90 1007.3
20260508122043 30 0 0.0 0.0 0.00 0.00 0.00 90 1007.3
20260508121559 29 0 0.0 0.0 0.00 0.00 0.00 89 1007.2
20260508121040 29 0 0.0 0.0 0.00 0.00 0.00 89 1007.2
20260508120542 29 0 0.0 0.0 0.00 0.00 0.00 90 1007.1
20260508120052 29 0 0.0 0.0 0.00 0.00 0.00 90 1007.2
20260508115543 29 0 0.0 0.0 0.00 0.00 0.00 90 1007.1
20260508115042 29 0 0.0 0.0 0.00 0.00 0.00 90 1007.1
20260508114551 29 0 0.0 0.0 0.00 0.00 0.00 90 1007.0
20260508114044 29 0 0.0 0.0 0.00 0.00 0.00 90 1006.9
20260508113545 28 0 0.0 0.0 0.00 0.00 0.00 90 1006.9
20260508113105 28 0 0.0 0.0 0.00 0.00 0.00 91 1006.9
20260508112541 28 0 0.0 0.0 0.00 0.00 0.00 90 1006.9
20260508112040 28 0 0.0 0.0 0.00 0.00 0.00 90 1006.9
20260508111601 27 0 0.0 0.0 0.00 0.00 0.00 89 1007.0
20260508111042 27 0 0.0 0.0 0.00 0.00 0.00 89 1007.0
20260508110544 27 0 0.0 0.0 0.00 0.00 0.00 89 1007.0
20260508110059 27 0 0.0 0.0 0.00 0.00 0.00 88 1007.0
20260508105545 27 0 0.0 0.0 0.00 0.00 0.00 88 1007.0
20260508105044 27 0 0.0 0.0 0.00 0.00 0.00 88 1007.1
20260508104554 27 0 0.0 0.0 0.00 0.00 0.00 88 1007.2
20260508104043 27 0 0.0 0.0 0.00 0.00 0.00 88 1007.2
20260508103543 27 0 0.0 0.0 0.00 0.00 0.00 88 1007.2
20260508103052 27 0 0.0 0.0 0.00 0.00 0.00 88 1007.1
20260508102544 27 0 0.0 0.0 0.00 0.00 0.00 88 1007.3
20260508102044 27 0 0.0 0.0 0.00 0.00 0.00 88 1007.3
20260508101549 27 0 0.0 0.0 0.00 0.00 0.00 88 1007.4
20260508101043 26 0 0.0 0.0 0.00 0.00 0.00 88 1007.5
20260508100543 26 0 0.0 0.0 0.00 0.00 0.00 88 1007.5
20260508100051 26 0 0.0 0.0 0.00 0.00 0.00 88 1007.5
20260508095540 26 0 0.0 0.0 0.00 0.00 0.00 88 1007.5
20260508095044 26 0 0.0 0.0 0.00 0.00 0.00 88 1007.5
20260508094555 26 0 0.0 0.0 0.00 0.00 0.00 87 1007.6
20260508094044 26 0 0.0 0.0 0.00 0.00 0.00 87 1007.6
20260508093540 26 0 0.0 0.0 0.00 0.00 0.00 87 1007.8
20260508093053 26 0 0.0 0.0 0.00 0.00 0.00 87 1007.8
20260508092543 26 0 0.0 0.0 0.00 0.00 0.00 87 1007.8
20260508092043 26 0 0.0 0.0 0.00 0.00 0.00 87 1007.8
20260508091554 26 0 0.0 0.0 0.00 0.00 0.00 86 1007.8
20260508091046 26 0 0.0 0.0 0.00 0.00 0.00 86 1007.8
20260508090543 26 0 0.0 0.0 0.00 0.00 0.00 86 1007.9
20260508090053 26 0 0.0 0.0 0.00 0.00 0.00 86 1007.8
20260508085542 26 0 0.0 0.0 0.00 0.00 0.00 86 1007.9
20260508085046 26 0 0.0 0.0 0.00 0.00 0.00 86 1007.9
20260508084554 26 0 0.0 0.0 0.00 0.00 0.00 86 1007.9
20260508084043 26 0 0.0 0.0 0.00 0.00 0.00 86 1007.9
20260508083539 26 0 0.0 0.0 0.00 0.00 0.00 85 1007.8
20260508083108 27 0 0.0 0.0 0.00 0.00 0.00 86 1007.9
20260508082545 27 0 0.0 0.0 0.00 0.00 0.00 86 1007.9
20260508082042 27 0 0.0 0.0 0.00 0.00 0.00 85 1007.9
20260508081605 27 0 0.0 0.0 0.00 0.00 0.00 85 1007.9
20260508081043 27 0 0.0 0.0 0.00 0.00 0.00 85 1007.9
20260508080544 27 0 0.0 0.0 0.00 0.00 0.00 84 1007.9
20260508080054 27 0 0.0 0.0 0.00 0.00 0.00 84 1007.9
20260508075543 27 0 0.0 0.0 0.00 0.00 0.00 84 1008.0
20260508075043 27 0 0.0 0.0 0.00 0.00 0.00 83 1007.9
20260508074554 27 0 0.0 0.0 0.00 0.00 0.00 83 1007.9
20260508074044 27 0 0.0 0.0 0.00 0.00 0.00 83 1007.9
20260508073543 27 0 0.0 0.0 0.00 0.00 0.00 82 1007.9
20260508073053 28 0 0.0 0.0 0.00 0.00 0.00 82 1008.0
20260508072542 28 0 0.0 0.0 0.00 0.00 0.00 83 1008.0
20260508072043 28 0 0.0 0.0 0.00 0.00 0.00 82 1008.0
20260508071548 28 0 0.0 0.0 0.00 0.00 0.00 81 1008.0
20260508071043 28 0 0.0 0.0 0.00 0.00 0.00 81 1007.9
20260508070544 28 0 0.0 0.0 0.00 0.00 0.00 81 1007.9
20260508070053 28 0 0.0 0.0 0.00 0.00 0.00 81 1007.9
20260508065543 28 0 0.0 0.0 0.00 0.00 0.00 80 1007.9
20260508065042 28 0 0.0 0.0 0.00 0.00 0.00 80 1008.0
20260508064548 29 0 0.0 0.0 0.00 0.00 0.00 79 1008.1
20260508064043 29 0 0.0 0.0 0.00 0.00 0.00 78 1008.1
20260508063543 29 0 0.0 0.0 0.00 0.00 0.00 78 1008.1
20260508063050 29 0 0.0 0.0 0.00 0.00 0.00 79 1008.2
20260508062543 29 0 0.0 0.0 0.00 0.00 0.00 79 1008.1
20260508062043 29 0 0.0 0.0 0.00 0.00 0.00 79 1008.2
20260508061552 29 0 0.0 0.0 0.00 0.00 0.00 78 1008.2
20260508061043 29 0 0.0 0.0 0.00 0.00 0.00 77 1008.3
20260508060543 30 0 0.0 0.0 0.00 0.00 0.00 76 1008.2
20260508060048 30 0 0.0 0.0 0.00 0.00 0.00 75 1008.2
20260508055542 30 0 0.0 0.0 0.00 0.00 0.00 76 1008.3
20260508055042 30 0 0.0 0.0 0.00 0.00 0.00 77 1008.3
20260508054547 29 0 0.0 0.0 0.00 0.00 0.00 76 1008.4
20260508054045 30 0 0.0 0.0 0.00 0.00 0.00 75 1008.4
20260508053542 30 0 0.0 0.0 0.00 0.00 0.00 75 1008.4
20260508053052 30 0 0.0 0.0 0.00 0.00 0.00 75 1008.4
20260508052542 31 0 0.0 0.0 0.00 0.00 0.00 74 1008.4
20260508052042 31 0 0.0 0.0 0.00 0.00 0.00 74 1008.4
20260508051550 31 0 0.0 0.0 0.00 0.00 0.00 74 1008.4
20260508051042 31 0 0.0 0.0 0.00 0.00 0.00 74 1008.6
20260508050543 31 0 0.0 0.0 0.00 0.00 0.00 72 1008.5
20260508050052 31 0 0.0 0.0 0.00 0.00 0.00 71 1008.6
20260508045544 32 0 0.0 0.0 0.00 0.00 0.00 71 1008.4
20260508045042 32 0 0.0 0.0 0.00 0.00 0.00 71 1008.5
20260508044554 32 0 0.0 0.0 0.00 0.00 0.00 70 1008.5
20260508044045 32 0 0.0 0.0 0.00 0.00 0.00 68 1008.6
20260508043542 33 0 0.0 0.0 0.00 0.00 0.00 68 1008.6
20260508043051 33 0 0.0 0.0 0.00 0.00 0.00 68 1008.6
20260508042543 33 0 0.0 0.0 0.00 0.00 0.00 68 1008.6
20260508042042 33 0 0.0 0.0 0.00 0.00 0.00 68 1008.6
20260508041552 33 0 0.0 0.0 0.00 0.00 0.00 69 1008.7
20260508041042 33 0 0.0 0.0 0.00 0.00 0.00 67 1008.7
20260508040543 34 0 0.0 0.0 0.00 0.00 0.00 65 1008.7
20260508040053 34 0 0.0 0.0 0.00 0.00 0.00 64 1008.7
20260508035543 35 0 0.0 0.0 0.00 0.00 0.00 63 1008.8
20260508035043 36 0 0.0 0.0 0.00 0.00 0.00 62 1008.7
20260508034549 36 0 0.0 0.0 0.00 0.00 0.00 61 1008.7
20260508034042 37 0 0.0 0.0 0.00 0.00 0.00 60 1008.8
20260508033543 37 0 0.0 0.0 0.00 0.00 0.00 60 1008.7
20260508033054 38 0 0.0 0.0 0.00 0.00 0.00 57 1008.8
20260508032543 38 0 0.0 0.0 0.00 0.00 0.00 57 1008.7
20260508032045 39 0 0.0 0.0 0.00 0.00 0.00 56 1008.7
20260508031550 39 0 0.0 0.0 0.00 0.00 0.00 56 1008.8
20260508031042 40 0 0.0 0.0 0.00 0.00 0.00 56 1008.8
20260508030543 41 0 0.0 0.0 0.00 0.00 0.00 55 1008.7
20260508030052 41 0 0.0 0.0 0.00 0.00 0.00 53 1008.8
20260508025543 42 0 0.0 0.0 0.00 0.00 0.00 52 1008.7
20260508025043 43 0 0.0 0.0 0.00 0.00 0.00 50 1008.6
20260508024551 43 0 0.0 0.0 0.00 0.00 0.00 48 1008.6
20260508024043 44 0 0.0 0.0 0.00 0.00 0.00 47 1008.6
20260508023544 45 0 0.0 0.0 0.00 0.00 0.00 47 1008.5
20260508023055 46 0 0.0 0.0 0.00 0.00 0.00 45 1008.4
20260508022543 47 0 0.0 0.0 0.00 0.00 0.00 44 1008.6